VZLUSAT-1 (42790 NORAD) Tracking and Keplerian Element Data

This shows tracking and keplerian element data for the satellite.

Feedback or suggestion? Click here.




ElementValue
Catalog42790
NameVZLUSAT-1
Epoch Orbit7753
Epoch Day319.45008939
Epoch Year2018
RAAN16.9958
Inclination97.384
Eccentricity0.0009664
Argument of Perigee264.6565
Mean Anonmoly95.3569
Mean Motion15.22751347
Decay Rate1.708E-05
L11 42790U 17036AB 18319.45008939 .00001708 00000-0 76100-4 0 9993
L22 42790 97.3840 16.9958 0009664 264.6565 95.3569 15.22751347 77538

Live tracking and technical data element details for VZLUSAT-1 (NORAD 42790). VZLUSAT-1 can be tracked NOW for your location showing map with azimuth and elevation plus other details from your city location.

Track the satellite on the map from your city or location and see movement details for azimuth, elevation, latitude, longitude, range, height, and movement on the map or in text.







IsCatalogInMostPopularTable: catalog: 42790, numindb: 134
Update: records affected: 1



GetName: 42790 VZLUSAT-1

Hit Count: updated at: Fri, 16 Nov 2018 12:02:13 GMT